Date,TemperatureHighF,TemperatureAvgF,TemperatureLowF,DewpointHighF,DewpointAvgF,DewpointLowF,HumidityHigh,HumidityAvg,HumidityLow,PressureMaxIn,PressureMinIn,WindSpeedMaxMPH,WindSpeedAvgMPH,GustSpeedMaxMPH,PrecipitationSumIn
2013-3-1,46.6,35.1,28.0,33.3,27.0,21.3,82,73,57,30.41,30.35,20,9,20,0.00
2013-3-2,53.8,40.4,27.5,34.7,28.8,21.8,85,65,43,30.38,29.98,21,7,21,0.00
2013-3-3,46.9,41.4,31.5,35.3,27.3,2.2,80,59,25,29.98,29.81,40,13,40,0.12
2013-3-4,40.6,30.1,22.1,15.3,7.8,1.5,57,40,23,30.16,29.91,17,5,17,0.00
2013-3-5,50.4,32.3,18.7,21.0,11.8,3.8,67,44,25,30.16,29.86,24,9,24,0.00
2013-3-6,52.2,39.1,30.7,33.0,23.6,14.8,85,55,37,29.92,29.70,36,11,36,0.07
2013-3-7,45.7,35.8,27.9,27.4,23.0,19.4,75,60,43,29.97,29.88,11,2,11,0.15
2013-3-13,58.8,52.7,44.1,36.9,35.5,33.9,72,53,40,29.93,29.91,20,11,20,0.00
2013-3-14,67.8,51.3,37.4,37.5,34.0,30.3,82,56,26,29.95,29.81,20,9,20,0.00
2013-3-15,63.7,52.2,40.1,36.0,29.8,22.1,76,45,21,29.82,29.70,23,9,23,0.00
2013-3-16,59.2,48.7,40.1,37.4,24.9,15.2,85,41,21,29.73,29.51,24,6,24,0.00
2013-3-17,43.5,37.3,29.8,37.5,15.7,2.9,94,45,22,29.68,29.49,42,16,42,0.30
2013-3-18,37.2,31.1,27.5,14.8,10.4,3.9,48,42,32,29.75,29.68,24,7,24,0.00
2013-3-20,58.1,43.9,39.7,43.9,39.3,33.9,97,85,40,30.26,29.78,24,11,24,0.19
2013-3-21,42.6,34.8,30.0,40.2,20.6,9.4,95,57,35,30.01,29.78,38,16,38,0.19
2013-3-22,34.9,27.7,24.4,25.1,17.9,9.6,84,67,45,30.05,29.93,23,8,23,0.00
2013-3-23,39.6,26.9,16.5,19.7,15.0,8.0,86,63,32,30.21,30.04,17,5,17,0.00
2013-3-24,41.7,27.7,17.6,18.1,9.5,0.7,75,49,23,30.23,30.17,17,6,17,0.00
2013-3-25,50.4,37.2,18.3,22.3,14.3,4.7,64,41,21,30.20,29.79,19,7,19,0.76
2013-3-26,54.7,39.2,30.6,37.7,27.6,19.4,85,63,47,29.80,29.72,15,4,15,0.00
2013-3-27,63.9,44.3,31.5,37.3,31.9,24.9,88,65,23,29.81,29.76,14,6,14,0.00
2013-3-28,68.4,49.0,32.5,38.0,33.2,26.7,84,58,25,29.85,29.78,21,6,21,0.00
2013-3-29,52.5,46.3,39.4,36.3,34.0,11.3,75,63,31,29.94,29.85,11,6,11,0.00
2013-3-30,67.1,51.4,37.4,37.1,29.5,21.3,76,46,19,30.00,28.32,16,5,16,0.00
2013-3-31,73.2,52.2,33.1,30.7,25.5,18.0,72,41,14,29.93,29.73,17,7,17,0.00